Home > Weather > Schleswig > Past weeks

Flag for Germany Weather for the Past 2 Weeks in Schleswig, Schleswig-Holstein, Germany

Now
41 °F

Quite cool.


Feels Like: 41 °F
Forecast: 42 / 68 °F
Wind: 2 mph from East

Location: Schleswig-Jagel

Current Time: May 5, 2016 at 2:00:35 AM

Latest Report: May 5, 2016 at 1:20 AM


Visibility: 4 mi

Pressure: 30.39 "Hg

Humidity: 87%

Dew Point: 37 °F

Location of SchleswigLocation

Historic Weather in Schleswig — Graph

°F

Schleswig Temperature Yesterday

Maximum temperature yesterday: 57 °F (at 2:20 PM)
Minimum temperature yesterday: 37 °F (at 4:20 AM)
Average temperature yesterday: 48 °F

High & Low Weather Summary for the Past Weeks

 TemperatureHumidityPressure
High64 °F (May 2, 2:20 PM)100% (Apr 21, 5:20 AM)30.39 "Hg (Apr 21, 5:20 AM)
Low30 °F (Apr 24, 4:20 AM)32% (Apr 23, 2:20 PM)29.33 "Hg (Apr 26, 5:58 AM)
Average43 °F78%29.97 "Hg
* Reported Apr 20 12:20 AM — May 5 12:20 AM, Schleswig, Weather by CustomWeather, © 2016

Note: Actual official high and low records may vary slightly from our data, if they occured in-between our weather recording intervals... More about our weather records

Advertising

Schleswig Weather History for the Previous 24 Hours

Scroll right to see more
 ConditionsComfort  
Time TempWeatherWind HumidityBarometerVisibility
12:20 AM
Thu, May 5
41 °FQuite cool.3 mph87%30.39 "Hg4 mi
11:20 PM
Wed, May 4
46 °FCool.No wind76%30.39 "Hg4 mi
10:51 PM46 °FPassing clouds.1 mph76%30.39 "HgN/A
10:20 PM48 °FPassing clouds.1 mph71%30.39 "HgN/A
9:20 PM48 °FPassing clouds.6 mph71%30.39 "HgN/A
8:20 PM52 °FPassing clouds.8 mph67%30.39 "HgN/A
7:20 PM57 °FPassing clouds.10 mph51%30.36 "HgN/A
6:20 PM57 °FPassing clouds.7 mph51%30.36 "HgN/A
5:20 PM57 °FPassing clouds.7 mph51%30.39 "HgN/A
4:20 PM57 °FScattered clouds.7 mph48%30.39 "HgN/A
3:20 PM57 °FScattered clouds.5 mph44%30.39 "HgN/A
2:20 PM57 °FScattered clouds.3 mph41%30.39 "HgN/A
1:20 PM54 °FScattered clouds.7 mph51%30.39 "HgN/A
12:20 PM54 °FScattered clouds.7 mph47%30.39 "HgN/A
11:20 AM52 °FPassing clouds.7 mph58%30.39 "HgN/A
10:20 AM50 °FPassing clouds.8 mph67%30.39 "HgN/A
9:20 AM48 °FScattered clouds.8 mph76%30.39 "HgN/A
8:20 AM45 °FPassing clouds.5 mph87%30.36 "HgN/A
7:20 AM41 °FFog.5 mph93%30.36 "HgN/A
6:56 AM39 °FFog.3 mph100%30.36 "Hg6 mi
6:20 AM37 °FFog.5 mph100%30.33 "Hg0 mi
5:20 AM39 °FChilly.5 mph93%30.33 "Hg1 mi
4:20 AM37 °FChilly.3 mph100%30.30 "Hg1 mi
3:20 AM39 °FChilly.3 mph93%30.30 "Hg3 mi
2:20 AM39 °FChilly.3 mph93%30.30 "Hg2 mi
Weather by CustomWeather, © 2016

See weather overviewHow to use our weather pages